Regional Weather Roundup
Issued by NWS

Home | Current Version | Previous Version | Graphics & Text | Print | Product List | Glossary On
Versions: 1 2 3 4 5 6 7 8 9 10 11 12 13 14 15 16 17 18 19 20 21 22 23 24 25 26 27
000
ASUS45 KBOU 102310
RWRCO

WEATHER ROUNDUP FOR COLORADO
NATIONAL WEATHER SERVICE DENVER/BOULDER CO
400 PM MST SUN DEC 10 2017

NOTE: "FAIR" INDICATES FEW OR NO CLOUDS BELOW 12000 FEET WITH NO
SIGNIFICANT WEATHER AND/OR OBSTRUCTIONS TO VISIBILITY.

COZ001>005-013-030-031-110000-
...NORTHWEST COLORADO...

CITY           SKY/WX    TMP DP  RH WIND       PRES   REMARKS
CRAIG          FAIR      34  19  54 CALM      30.52F
HAYDEN         FAIR      38  17  42 CALM      30.53F
MEEKER         FAIR      48  -3  12 SW5       30.50S
RABBIT EARS PA FAIR      25  10  54 W7        30.55F WCI  17
STEAMBOAT SPGS FAIR      36  14  40 CALM      30.53S
WALDEN         FAIR      34  10  37 S7        30.52S WCI  28
$$

COZ006>008-011-110000-
...WEST CENTRAL VALLEYS...

CITY           SKY/WX    TMP DP  RH WIND       PRES   REMARKS
GRAND JUNCTION FAIR      47   5  18 NW3       30.49F
MONTROSE       FAIR      46  -1  14 CALM      30.51F
EAGLE          FAIR      42  10  27 CALM      30.56F
RIFLE          FAIR      46   2  16 SW5       30.49F
DELTA          FAIR      48  -1  12 CALM      30.49F
NUCLA          FAIR      46  -6  11 N3        30.51F
$$

COZ017>023-064>068-110000-
...SOUTHWEST COLORADO...

CITY           SKY/WX    TMP DP  RH WIND       PRES   REMARKS
DURANGO        FAIR      48   3  15 W7        30.45F
CORTEZ         FAIR      45   4  18 SW5       30.47S
PAGOSA SPRINGS FAIR      51 -10   7 SW3       30.48S
TELLURIDE      FAIR      45 -11   9 W10       30.53S
WOLF CREEK PAS FAIR      32  -9  16 SW9       30.63S WCI  24
$$

COZ009-010-012-014-032>034-037-058>063-110000-
...CENTRAL COLORADO...

CITY           SKY/WX    TMP DP  RH WIND       PRES   REMARKS
ASPEN          FAIR      39  -2  17 NW5       30.50S
BUENA VISTA    FAIR      49 -14   7 NW13      30.44R
COPPER MTN     NOT AVBL
BERTHOUD PASS  FAIR      18   7  62 NW18G30   30.55S WCI   2
COTTONWOOD PAS FAIR      48 -45   1 SW8G18    30.50F
GUNNISON       FAIR      40  -4  15 CALM      30.51F
KREMMLING      FAIR      30  14  51 CALM      30.57F
LEADVILLE      FAIR      37  -9  13 NW8       30.51S
MONARCH PASS   FAIR      30  -9  17 SW12      30.68S WCI  21
SALIDA         FAIR      52 -13   6 W7        30.50R
SUNLIGHT       FAIR      30 -13  15 W3        30.62S
WILKERSON PASS FAIR      36 -22   7 W5        30.56S
$$

COZ069>075-110000-
...SAN LUIS VALLEY/SANGRE DE CRISTO MOUNTAINS...

CITY           SKY/WX    TMP DP  RH WIND       PRES   REMARKS
ALAMOSA        FAIR      46 -10   9 CALM      30.46S
DEL NORTE      FAIR      44  -3  14 SE3       30.47F
LA VETA PASS   FAIR      34  -4  19 SW18G26     N/A  WCI  23
SAGUACHE       FAIR      43  -6  13 S6        30.48R
$$

COZ035-036-038>040-110000-
...NORTHERN COLORADO FRONT RANGE...

CITY           SKY/WX    TMP DP  RH WIND       PRES   REMARKS
DENVER INTL AP FAIR      57  -4   8 W5        30.33S
DMNS CITY PARK NOT AVBL
AURORA         PTCLDY    58 -13   5 N3        30.34S
FRONT RANGE AP PTCLDY    57  -2   9 W12       30.34S
ERIE MUNI ARPT FAIR      57   0  10 CALM      30.37F
BOULDER MUN AP FAIR      55   5  13 CALM      30.33S
CENTENNIAL     FAIR      58  -4   8 CALM      30.34S
BROOMFIELD     PTCLDY    57  -2   9 CALM      30.35R
FORT COLLINS   FAIR      55   5  13 CALM      30.33S
LONGMONT       FAIR      58   3  11 CALM      30.34S
$$

COZ041-046-047-076>085-087-088-110000-
...PIKES PEAK/PALMER DIVIDE AND SOUTHERN FOOTHILLS...

CITY           SKY/WX    TMP DP  RH WIND       PRES   REMARKS
COLO. SPRINGS  FAIR      53  -4   9 SE3       30.38S
A. F. ACADEMY  FAIR      51 -11   7 S6        30.37F
SCHRIEVER AFB  FAIR      49  -6   9 S7        30.38S
CHEYENNE MTN   FAIR      43  -4  13 CALM      30.34S
ELLICOTT         N/A    N/A N/A N/A SW6       30.37S
FALCON         FAIR      49  -9   9 S7        30.40S
FORT CARSON    FAIR      55 -11   6 CALM      30.36S
LIMON          FAIR      52  -6   9 S9        30.34S
MONUMENT HILL  FAIR      50  -6  10 W3        30.40S
CANON CITY     FAIR      57   0   9 E6        30.35S
WALSENBURG     FAIR      57   1  10 SE5       30.36S
TRINIDAD       FAIR      56  -2   9 E5        30.36S
$$

COZ042>045-048>051-090-091-110000-
...NORTHEAST COLORADO...

CITY           SKY/WX    TMP DP  RH WIND       PRES   REMARKS
GREELEY ARPT   FAIR      55   4  12 SW5       30.32F
AKRON          FAIR      52  -5   9 W8        30.30F
BURLINGTON     FAIR      56   1  10 N3        30.31F
WRAY           FAIR      57   0   9 W6        30.27F
YUMA           FAIR      52   3  14 W5        30.29F
STERLING       FAIR      55   3  12 N6        30.27F
HOLYOKE        FAIR      59   1  10 NW6       30.27S
FORT MORGAN    FAIR      56  -4   8 SW3       30.31F
$$

COZ086-089-092>099-110000-
...SOUTHEAST COLORADO...

CITY           SKY/WX    TMP DP  RH WIND       PRES   REMARKS
PUEBLO         FAIR      58  -4   8 SE8       30.33S
LA JUNTA       FAIR      58   1  10 CALM      30.33S
LAMAR          FAIR      60  -1   8 SW3       30.30F
SPRINGFIELD      N/A     58   3  11 NE5       30.34R
$$




USA.gov is the U.S. government's official web portal to all federal, state and local government web resources and services.